World > North America > United States > Texas > Chandler   City of Chandler, Texas

Chandler, TX Hourly Weather Updates

Feedback E-mail the Weather

Quick Clicks

Chandler, TX Weather Maps

°F °C°F °C
Chandler Weather Map
UTC Time: 6/22/2024, 15:11
Your Time:

Chandler, TX Regional Weather

Expires:202406221600;;470472
ASUS44 KFWD 221510
RWRTX 
NORTH TEXAS HOURLY WEATHER ROUNDUP
NATIONAL WEATHER SERVICE FORT WORTH TX
1000 AM CDT SAT JUN 22 2024

NOTE: "FAIR" INDICATES FEW OR NO CLOUDS BELOW 12,000 FEET WITH NO
SIGNIFICANT WEATHER AND/OR OBSTRUCTIONS TO VISIBILITY.


TXZ095>097-106>112-122>126-135>138-148>153-164>167-221600-
EAST TEXAS
  
CITY           SKY/WX    TMP DP  RH WIND       PRES   REMARKS
PARIS          FAIR     N/A N/A N/A SW10      30.09F                  
SULPHUR SPRNGS FAIR      87  70  58 SW10      30.12S HX  92           
MOUNT PLEASANT FAIR     N/A N/A N/A SW6       30.09F                  
GILMER         FAIR      85  70  60 SW3       30.10S HX  90           
MINEOLA        FAIR      84  73  70 SW7       30.10S HX  91           
TYLER          FAIR      86  72  62 S8        30.10S HX  92           
LONGVIEW       FAIR      87  73  62 SW6       30.08F HX  94           
ATHENS         FAIR      82  73  74 CALM      30.08F                  
PALESTINE      FAIR     N/A N/A N/A SW7       30.08S                  
JACKSONVILLE   FAIR      83  72  68 CALM      30.13S                  
HENDERSON      FAIR      90  74  58 SW3       30.11F HX  99           
CENTER         FAIR      86  72  62 W5        30.10F HX  92           
NACOGDOCHES    HAZE      84  73  70 W7        30.10F VSB 1   HX  91   
LUFKIN         FAIR      85  74  69 W5        30.09S HX  92           
$$

SUPPLEMENTAL OBSERVATIONS (NWS FORT WORTH AREA)
  
CITY           SKY/WX    TMP DP  RH WIND       PRES   REMARKS
CADDO GRASSLND   N/A     88  73  62 SW5         N/A  HX  96           
LBJ GRASSLAND    N/A     88  73  62 SW6         N/A  HX  96           
POSSUM KINGDOM   N/A     88  70  55 S9          N/A  HX  92           
GRANBURY         N/A     86  72  62 S9          N/A  HX  92           
MCGREGOR         N/A     84  72  65 S8          N/A                   
TEMPLE           N/A     82  73  74 S8          N/A                   
PALESTINE        N/A     88  75  66 S1          N/A  HX  97           
$$

SUPPLEMENTAL OBSERVATIONS (NWS NORMAN AREA)
  
CITY           SKY/WX    TMP DP  RH WIND       PRES   REMARKS
GOODLETT         N/A     85  68  55 SW17      30.07                   
ODELL            N/A     86  71  60 SW17      30.07F HX  91           
CROWELL          N/A     84  70  63 S14       30.08F                  
KNOX CITY        N/A     85  71  62 SW14      30.09                   
SEYMOUR          N/A     84  71  65 SW12      30.08F                  
MILLERS CREEK    N/A     84  72  65 S14         N/A                   
$$

SUPPLEMENTAL OBSERVATIONS (NWS SAN ANGELO AREA)
  
CITY           SKY/WX    TMP DP  RH WIND       PRES   REMARKS
WEINERT          N/A     83  70  63 SW12      30.10F                  
HASKELL          N/A     84  71  64 S16       30.10                   
THROCKMORTON     N/A     85  72  65 SW9       30.10  HX  91           
STAMFORD         N/A     85  71  61 S14       30.12  HX  90           
CLYDE            N/A     82  69  65 S12       30.17S                  
HAMBY            N/A     84  68  58 SW12        N/A                   
IVIE RESERVOIR   N/A     82  66  57 S9          N/A                   
COLORADO BEND    N/A     81  70  69 S8          N/A                   
$$

SUPPLEMENTAL OBSERVATIONS (NWS SHREVEPORT AREA)
  
CITY           SKY/WX    TMP DP  RH WIND       PRES   REMARKS
TEXARKANA        N/A     88  77  70 SW3         N/A  HX 100           
LUFKIN           N/A     88  73  62 MISG        N/A  HX  96           
N SABINE NF      N/A     88  75  66 MISG        N/A  HX  97           
$$

SUPPLEMENTAL OBSERVATIONS ARE A COLLECTION OF AUTOMATED INSTRUMENTS
THAT ARE MAINTAINED BY A VARIETY OF FEDERAL AND STATE AGENCIES. 
CERTAIN ELEMENTS...SUCH AS HUMIDITY VALUES AND SUSTAINED WIND 
SPEEDS...MAY BE APPROXIMATED.

  

SKY/WX - Weather  TMP - Temperature  DP - Dew Point  RH - Humidity
WIND - Wind Direction/Speed PRES - Barometric Pressure VSB - Visibility
WCI - Wind Chill Index E13G22 Wind - East Wind 13 mph/Gusts of 22 mph

Trending Headlines

Trending Entertainment Headlines

Chandler Radar Loop

Use the map search tool if you want to place a location marker on the radar map...

Chandler Quick Facts

National Two Day Weather Forecast


E-mail the Chandler Weather Forecast

Voice your opinion or tell us about page issues...